Regional Weather Roundup
Issued by NWS Kansas City/Pleasant Hill, MO

Home | Current Version | Previous Version | Graphics & Text | Print | Product List | Glossary Off
Versions: 1 2 3 4 5 6 7 8 9 10 11 12 13 14 15 16 17 18 19 20 21 22 23 24 25 26 27 28 29 30 31 32 33 34 35 36 37 38 39 40 41 42 43 44 45 46 47 48 49 50

000
ASUS43 KEAX 080710
RWREAX

WEATHER ROUNDUP FOR EASTERN KANSAS AND NORTHWEST MISSOURI
NATIONAL WEATHER SERVICE KANSAS CITY/PLEASANT HILL MO
100 AM CST THU DEC 08 2016

KSZ040-057-103>105-MOZ028-029-037-043-080800-
...KANSAS CITY METROPOLITAN AREA...

CITY           SKY/WX    TMP DP  RH WIND       PRES   REMARKS
K.C. INTL      CLEAR     19   7  59 NW10      30.46S WCI   7
K.C. DOWNTOWN  CLEAR     21   8  57 NW7       30.49S WCI  12
LEES SUMMIT    CLEAR     20   9  62 NW12      30.47S WCI   8
OLATHE - IXD   CLEAR     19   8  62 NW9       30.48F WCI   8
OLATHE - OJC   CLEAR     19   7  59 NW12      30.47S WCI   7
LAWRENCE       CLEAR     18   9  68 W9        30.51S WCI   7

$$

MOZ001>008-011>017-020>025-030>033-038>040-044>046-053-054-080800-
...NORTHERN AND CENTRAL MISSOURI...

CITY           SKY/WX    TMP DP  RH WIND       PRES   REMARKS
ST. JOSEPH     CLEAR     19   7  59 NW10      30.48F WCI   7
MOSBY          SUNNY     21   9  58 NW9       30.47S WCI  11
WARRENSBURG    PTCLDY    19  10  68 W5        30.47S WCI  13
WHITEMAN AFB   CLEAR     20  13  74 W8        30.45F WCI  11
CLINTON        CLEAR     19  12  73 CALM      30.48S
SEDALIA        CLEAR     21  12  68 W9        30.45F WCI  11
WARSAW         NOT AVBL
CHILLICOTHE      N/A     20   9  62 W5        30.44F WCI  13
KIRKSVILLE     CLEAR     18   9  68 W10       30.38R WCI   6

$$

MOZ041-047>049-056>058-063>065-088>090-097-080800-
...EASTERN AND SOUTHERN MISSOURI...

CITY           SKY/WX    TMP DP  RH WIND       PRES   REMARKS
ST. LOUIS INTL PTCLDY    26  12  55 NW12      30.38R WCI  16
SPIRIT OF STL  CLEAR     25  14  63 W14       30.40R WCI  13
COLUMBIA       CLEAR     21  11  65 W9        30.41S WCI  11
JEFFERSON CITY CLEAR     22  12  65 W7        30.45S WCI  13
ROLLA          CLEAR     21  13  71 NW10      30.39R WCI  10
OSAGE BEACH    CLEAR     22  12  65 NW7       30.45S WCI  13
SPRINGFIELD    CLEAR     22  17  81 NW12      30.44R WCI  10
BRANSON        CLOUDY    28  23  80 NW14      30.42S WCI  17
JOPLIN         PTCLDY    20  17  88 N6        30.51R WCI  12
WEST PLAINS    CLOUDY    29  23  78 NW13      30.38R WCI  19

$$

IAZ060-094-KSZ022-034>040-054-083-096-NEZ052-066-093-080800-
...KANSAS...SOUTHEAST NEBRASKA AND IOWA...

CITY           SKY/WX    TMP DP  RH WIND       PRES   REMARKS
TOPEKA         CLEAR     19   8  62 NW8       30.52R WCI   9
MANHATTAN      CLEAR     19   7  59 VRB5      30.55R WCI  12
EMPORIA        CLEAR     16  11  80 W9        30.52S WCI   4
CHANUTE        CLEAR     19  14  81 NW6       30.53R WCI  11
WICHITA        CLEAR     19  14  81 NW10      30.56S WCI   7
OMAHA          CLEAR     15   4  61 NW16G23   30.47S WCI  -1
LINCOLN        CLEAR     15   3  59 NW18      30.51S WCI  -2
FALLS CITY     CLEAR     18   7  62 NW13G23   30.49R WCI   5
LAMONI         CLEAR     16   7  67 NW23      30.38S WCI  -2
DES MOINES     FLURRIES  18   8  65 NW18      30.36S WCI   2

$$




USA.gov is the U.S. government's official web portal to all federal, state and local government web resources and services.